Location: Sabana Grande
(18.0777°N, 66.9605°W)
Time: 19:44:47
(UTC-04:00)

ARIANE 6 FM1 Upper Stage - Pass Details

Date: 21 September 2024
Orbit: 563 x 595 km, 62.0° (Epoch: 14 October)

Event Time Altitude Azimuth Distance (km) Brightness Sun altitude
Rises 19:01:22 0° 218° (SW) 2,746 6.7 -9.6°
Reaches altitude 10° 19:03:38 10° 224° (SW) 1,855 5.9 -10.2°
Maximum altitude 19:07:40 47° 298° (WNW) 758 3.8 -11.1°
Drops below altitude 10° 19:11:45 10° 13° (NNE) 1,877 5.2 -12.1°
Sets 19:14:04 0° 19° (NNE) 2,782 6.1 -12.6°
